Date String (YYYY-MM-DD hh:mm:ss) UTC,Instrument flags,absolute air pressure of the measurement (hPa),sample flow rate (lpm),inlet stack bypass flow (lpm),air temperature of the measurement (°C),ambient temperature measured by the external sensor (°C),aerosol sample conditioner tube jacket temperature (°C),OPC LED temperature (°C),internal box temperature (°C),relative humidity of the measurement (%),span deviation,mass concentration of particles derived from Lorenz-Mie calculation of OPC scattering (μg/m³),mass concentration of particles derived from Lorenz-Mie calculation of OPC scattering (μg/m³),mass concentration of particles derived from Lorenz-Mie calculation of OPC scattering (μg/m³)
DateTimeUTC,F1_M11,P_M11,Q1_M11,Q2_M11,T1_M11,T2_M11,T3_M11,T4_M11,T5_M11,U1_M11,ZSPAN_M11,X0_M11,X2_M11,X1_M11
2023-12-19 15:00:00,SystemResetWarning,0825.6,4.99,000.00,023.3,022.6,000.0,031.6,024.8,6.1,0000.0,0003.58,0001.27,0001.06
2023-12-19 15:01:00,SystemResetWarning,0825.6,4.99,000.00,023.3,022.7,000.0,031.6,024.8,6.1,0000.0,0003.68,0001.31,0001.08
2023-12-19 15:02:00,SystemResetWarning,0825.6,5.00,000.00,023.3,022.7,000.0,031.6,024.8,6.1,0000.0,0004.00,0001.32,0001.08
2023-12-19 15:03:00,SystemResetWarning,0825.6,5.00,000.00,023.4,022.7,000.0,031.6,024.8,6.1,0000.0,0004.06,0001.33,0001.08
2023-12-19 15:04:00,SystemResetWarning,0825.6,5.00,000.00,023.4,022.7,000.0,031.6,024.8,6.2,0000.0,0004.12,0001.34,0001.07
2023-12-19 15:05:00,SystemResetWarning,0825.6,5.00,000.00,023.4,022.6,000.0,031.6,024.8,6.2,0000.0,0004.12,0001.35,0001.06
2023-12-19 15:06:00,SystemResetWarning,0825.6,5.01,000.00,023.4,022.6,000.0,031.6,024.8,6.1,0000.0,0004.20,0001.35,0001.06
2023-12-19 15:07:00,SystemResetWarning,0825.6,5.00,000.00,023.4,022.6,000.0,031.6,024.9,6.0,0000.0,0004.10,0001.33,0001.05
2023-12-19 15:08:00,SystemResetWarning,0825.6,5.00,000.00,023.4,022.7,000.0,031.6,024.8,6.0,0000.0,0003.91,0001.33,0001.04
2023-12-19 15:09:00,SystemResetWarning,0825.6,5.00,000.00,023.4,022.7,000.0,031.6,024.8,6.0,0000.0,0002.36,0001.28,0001.02
2023-12-19 15:10:00,SystemResetWarning,0825.6,5.00,000.00,023.4,022.7,000.0,031.6,024.9,6.8,0000.0,0002.29,0001.26,0001.02
2023-12-19 15:11:00,SystemResetWarning,0825.6,5.00,000.00,023.4,022.7,000.0,031.6,024.9,7.4,0000.0,0002.21,0001.23,0001.01
2023-12-19 15:12:00,SystemResetWarning,0825.7,5.00,000.00,023.4,022.7,000.0,031.6,024.9,7.1,0000.0,0002.14,0001.20,0000.99
2023-12-19 15:13:00,SystemResetWarning,0825.6,5.00,000.00,023.4,022.7,000.0,031.7,024.9,6.2,0000.0,0001.85,0001.17,0000.97
2023-12-19 15:14:00,SystemResetWarning,0825.7,5.00,000.00,023.4,022.7,000.0,031.7,024.8,7.4,0000.0,0001.71,0001.15,0000.96
2023-12-19 15:15:00,SystemResetWarning,0825.6,4.99,000.00,023.4,022.7,000.0,031.7,024.8,7.8,0000.0,0001.63,0001.11,0000.94
2023-12-19 15:16:00,SystemResetWarning,0825.6,5.00,000.00,023.4,022.7,000.0,031.7,024.8,8.2,0000.0,0001.54,0001.09,0000.93
2023-12-19 15:17:00,SystemResetWarning,0825.6,5.00,000.00,023.4,022.7,000.0,031.7,024.9,8.1,0000.0,0001.44,0001.09,0000.93
2023-12-19 15:18:00,SystemResetWarning,0825.6,5.00,000.00,023.4,022.7,000.0,031.7,024.9,8.2,0000.0,0001.35,0001.09,0000.93
2023-12-19 15:19:00,SystemResetWarning,0825.6,5.00,000.00,023.5,022.7,000.0,031.7,024.9,8.1,0000.0,0001.35,0001.09,0000.92
2023-12-19 15:20:00,SystemResetWarning,0825.7,5.00,000.00,023.5,022.8,000.0,031.7,024.9,7.9,0000.0,0001.43,0001.10,0000.92
2023-12-19 15:21:00,SystemResetWarning,0825.7,5.00,000.00,023.5,022.8,000.0,031.7,024.9,7.3,0000.0,0001.54,0001.11,0000.91
2023-12-19 15:22:00,SystemResetWarning,0825.6,5.00,000.00,023.5,022.8,000.0,031.7,024.9,6.9,0000.0,0001.55,0001.11,0000.91
2023-12-19 15:23:00,SystemResetWarning,0825.6,5.00,000.00,023.5,022.8,000.0,031.7,024.9,7.0,0000.0,0001.53,0001.10,0000.90
2023-12-19 15:24:00,SystemResetWarning,0825.6,5.00,000.00,023.5,022.8,000.0,031.7,024.9,7.0,0000.0,0001.61,0001.11,0000.89
2023-12-19 15:25:00,SystemResetWarning,0825.6,5.00,000.00,023.5,022.8,000.0,031.7,024.8,6.8,0000.0,0001.63,0001.12,0000.90
2023-12-19 15:26:00,SystemResetWarning,0825.6,5.00,000.00,023.4,022.8,000.0,031.7,024.8,6.8,0000.0,0001.64,0001.12,0000.91
2023-12-19 15:27:00,SystemResetWarning,0825.6,5.01,000.00,023.4,022.8,000.0,031.7,024.8,6.9,0000.0,0001.67,0001.15,0000.92
2023-12-19 15:28:00,SystemResetWarning,0825.7,5.00,000.00,023.4,022.8,000.0,031.7,024.8,6.8,0000.0,0002.35,0001.13,0000.93
2023-12-19 15:29:00,SystemResetWarning,0825.6,5.00,000.00,023.5,022.8,000.0,031.7,024.8,6.4,0000.0,0002.87,0001.15,0000.93
2023-12-19 15:30:00,SystemResetWarning,0825.6,5.00,000.00,023.5,022.8,000.0,031.7,024.8,6.3,0000.0,0002.87,0001.15,0000.94
2023-12-19 15:31:00,SystemResetWarning,0825.6,5.00,000.00,023.5,022.8,000.0,031.7,024.8,6.2,0000.0,0002.79,0001.13,0000.94
2023-12-19 15:32:00,SystemResetWarning,0825.6,5.00,000.00,023.5,022.8,000.0,031.7,024.9,6.1,0000.0,0002.72,0001.13,0000.94
2023-12-19 15:33:00,SystemResetWarning,0825.7,5.00,000.00,023.5,022.8,000.0,031.7,024.9,6.2,0000.0,0002.74,0001.14,0000.94
2023-12-19 15:34:00,SystemResetWarning,0825.7,5.01,000.00,023.5,022.8,000.0,031.7,024.9,6.2,0000.0,0002.82,0001.16,0000.94
2023-12-19 15:35:00,SystemResetWarning,0825.8,5.00,000.00,023.5,022.8,000.0,031.7,024.9,6.2,0000.0,0002.83,0001.18,0000.95
2023-12-19 15:36:00,SystemResetWarning,0825.8,4.99,000.00,023.5,022.8,000.0,031.7,024.9,6.2,0000.0,0002.84,0001.18,0000.94
2023-12-19 15:37:00,SystemResetWarning,0825.7,5.01,000.00,023.5,022.8,000.0,031.7,024.9,6.2,0000.0,0002.85,0001.18,0000.94
2023-12-19 15:38:00,SystemResetWarning,0825.8,5.00,000.00,023.5,022.8,000.0,031.7,025.0,6.2,0000.0,0002.83,0001.16,0000.93
2023-12-19 15:39:00,SystemResetWarning,0825.7,5.00,000.00,023.5,022.9,000.0,031.8,025.0,6.2,0000.0,0002.09,0001.15,0000.91
2023-12-19 15:40:00,SystemResetWarning,0825.7,5.00,000.00,023.5,022.9,000.0,031.8,025.0,6.2,0000.0,0001.96,0001.11,0000.90
2023-12-19 15:41:00,SystemResetWarning,0825.7,5.00,000.00,023.5,022.9,000.0,031.8,025.0,6.2,0000.0,0002.30,0001.08,0000.89
2023-12-19 15:42:00,SystemResetWarning,0825.8,5.00,000.00,023.6,022.9,000.0,031.8,025.0,6.2,0000.0,0002.25,0001.06,0000.88
2023-12-19 15:43:00,SystemResetWarning,0825.7,5.00,000.00,023.6,022.9,000.0,031.8,025.0,6.2,0000.0,0002.18,0001.04,0000.88
2023-12-19 15:44:00,SystemResetWarning,0825.8,5.00,000.00,023.6,022.9,000.0,031.8,025.0,6.3,0000.0,0002.15,0001.04,0000.88
2023-12-19 15:45:00,SystemResetWarning,0825.8,5.00,000.00,023.6,022.9,000.0,031.8,025.0,6.2,0000.0,0002.10,0001.01,0000.88
2023-12-19 15:46:00,SystemResetWarning,0825.8,5.00,000.00,023.6,022.9,000.0,031.8,025.0,6.1,0000.0,0002.04,0001.00,0000.89
2023-12-19 15:47:00,SystemResetWarning,0825.8,5.00,000.00,023.6,022.9,000.0,031.8,025.0,6.0,0000.0,0002.02,0001.00,0000.90
2023-12-19 15:48:00,SystemResetWarning,0825.8,5.00,000.00,023.6,022.9,000.0,031.8,025.0,6.0,0000.0,0002.08,0001.03,0000.90
2023-12-19 15:49:00,SystemResetWarning,0825.8,5.00,000.00,023.6,022.9,000.0,031.8,025.0,6.0,0000.0,0002.06,0001.02,0000.90
2023-12-19 15:50:00,SystemResetWarning,0825.8,4.99,000.00,023.6,022.9,000.0,031.8,025.0,6.1,0000.0,0002.06,0001.03,0000.92
2023-12-19 15:51:00,SystemResetWarning,0825.8,4.99,000.00,023.6,022.9,000.0,031.9,025.0,6.1,0000.0,0001.87,0001.04,0000.91
2023-12-19 15:52:00,SystemResetWarning,0825.8,5.00,000.00,023.6,022.9,000.0,031.9,025.0,6.0,0000.0,0001.39,0001.04,0000.91
2023-12-19 15:53:00,SystemResetWarning,0825.8,5.01,000.00,023.6,022.9,000.0,031.9,025.1,6.1,0000.0,0001.40,0001.05,0000.92
2023-12-19 15:54:00,SystemResetWarning,0825.8,5.01,000.00,023.6,022.9,000.0,031.9,025.0,6.1,0000.0,0001.48,0001.07,0000.93
2023-12-19 15:55:00,SystemResetWarning,0825.8,4.99,000.00,023.7,023.0,000.0,031.9,025.1,6.2,0000.0,0001.55,0001.07,0000.93
2023-12-19 15:56:00,SystemResetWarning,0825.9,5.00,000.00,023.7,023.0,000.0,031.9,025.1,6.4,0000.0,0001.67,0001.10,0000.93
2023-12-19 15:57:00,SystemResetWarning,0825.9,5.00,000.00,023.7,023.0,000.0,031.9,025.1,6.5,0000.0,0001.68,0001.11,0000.93
2023-12-19 15:58:00,SystemResetWarning,0825.9,4.99,000.00,023.7,023.0,000.0,031.9,025.1,6.6,0000.0,0001.77,0001.11,0000.92
2023-12-19 15:59:00,SystemResetWarning,0825.9,5.00,000.00,023.7,023.0,000.0,031.9,025.1,6.2,0000.0,0001.79,0001.09,0000.91
